Time,TemperatureF,DewpointF,PressureIn,WindDirection,WindDirectionDegrees,WindSpeedMPH,WindSpeedGustMPH,Humidity,HourlyPrecipIn,Conditions,Clouds,dailyrainin,SoftwareType,DateUTC
2013-05-06 00:01:00,53.0,44.0,29.83,NNW,332,4.0,5.0,72,0.00,,,0.00,,2013-05-06 07:01:00,
2013-05-06 00:11:00,53.0,44.0,29.83,NNW,332,4.0,5.0,72,0.00,,,0.00,,2013-05-06 07:11:00,
2013-05-06 00:22:00,52.0,44.0,29.83,NNW,332,3.0,4.0,73,0.00,,,0.00,,2013-05-06 07:22:00,
2013-05-06 00:31:00,52.0,44.0,29.84,NNW,332,1.0,4.0,74,0.00,,,0.00,,2013-05-06 07:31:00,
2013-05-06 00:52:00,52.0,44.0,29.84,NNW,332,0.0,2.0,74,0.00,,,0.00,,2013-05-06 07:52:00,
2013-05-06 01:01:00,52.0,44.0,29.84,NNW,332,0.0,1.0,73,0.00,,,0.00,,2013-05-06 08:01:00,
2013-05-06 01:12:00,52.0,44.0,29.84,NNW,332,0.0,1.0,73,0.00,,,0.00,,2013-05-06 08:12:00,
2013-05-06 01:22:00,51.0,43.0,29.84,NNW,332,0.0,0.0,75,0.00,,,0.00,,2013-05-06 08:22:00,
2013-05-06 01:31:00,51.0,43.0,29.85,NNW,332,0.0,0.0,75,0.00,,,0.00,,2013-05-06 08:31:00,
2013-05-06 01:41:00,51.0,43.0,29.85,NNW,332,0.0,0.0,75,0.00,,,0.00,,2013-05-06 08:41:00,
2013-05-06 01:52:00,50.0,43.0,29.85,NNW,332,1.0,2.0,76,0.00,,,0.00,,2013-05-06 08:52:00,
2013-05-06 02:01:00,50.0,43.0,29.85,NNW,332,2.0,3.0,77,0.00,,,0.00,,2013-05-06 09:01:00,
2013-05-06 02:22:00,50.0,43.0,29.85,NNW,332,0.0,2.0,77,0.00,,,0.00,,2013-05-06 09:22:00,
2013-05-06 02:32:00,49.0,42.0,29.85,ESE,105,0.0,3.0,76,0.00,,,0.00,,2013-05-06 09:32:00,
2013-05-06 02:53:00,49.0,42.0,29.85,ESE,103,1.0,2.0,78,0.00,,,0.00,,2013-05-06 09:53:00,
2013-05-06 03:02:00,49.0,43.0,29.86,ESE,103,0.0,0.0,79,0.00,,,0.00,,2013-05-06 10:02:00,
2013-05-06 03:22:00,48.0,42.0,29.86,ENE,68,2.0,3.0,79,0.00,,,0.00,,2013-05-06 10:22:00,
2013-05-06 03:32:00,48.0,42.0,29.85,North,355,2.0,3.0,79,0.00,,,0.00,,2013-05-06 10:32:00,
2013-05-06 03:52:00,48.0,41.0,29.85,North,350,4.0,4.0,78,0.00,,,0.00,,2013-05-06 10:52:00,
2013-05-06 04:02:00,47.0,41.0,29.85,NNW,348,4.0,4.0,79,0.00,,,0.00,,2013-05-06 11:02:00,
2013-05-06 04:22:00,47.0,41.0,29.86,NNW,348,2.0,4.0,80,0.00,,,0.00,,2013-05-06 11:22:00,
2013-05-06 04:31:00,47.0,41.0,29.86,NNW,345,4.0,4.0,81,0.00,,,0.00,,2013-05-06 11:31:00,
2013-05-06 04:52:00,47.0,41.0,29.86,NNW,345,3.0,4.0,81,0.00,,,0.00,,2013-05-06 11:52:00,
2013-05-06 05:01:00,47.0,41.0,29.86,NNW,345,3.0,4.0,81,0.00,,,0.00,,2013-05-06 12:01:00,
2013-05-06 05:21:00,47.0,41.0,29.86,NNW,342,3.0,5.0,81,0.00,,,0.00,,2013-05-06 12:21:00,
2013-05-06 05:31:00,46.0,41.0,29.87,NNW,342,3.0,4.0,82,0.00,,,0.00,,2013-05-06 12:31:00,
2013-05-06 05:52:00,46.0,41.0,29.87,NNW,342,3.0,4.0,82,0.00,,,0.00,,2013-05-06 12:52:00,
2013-05-06 06:01:00,46.0,41.0,29.88,NNW,342,3.0,4.0,82,0.00,,,0.00,,2013-05-06 13:01:00,
2013-05-06 06:21:00,46.0,41.0,29.88,NNW,342,3.0,4.0,82,0.00,,,0.00,,2013-05-06 13:21:00,
2013-05-06 06:31:00,46.0,41.0,29.87,NNW,342,3.0,4.0,82,0.00,,,0.00,,2013-05-06 13:31:00,
2013-05-06 06:52:00,46.0,41.0,29.88,NNW,342,3.0,3.0,83,0.00,,,0.00,,2013-05-06 13:52:00,
2013-05-06 07:01:00,46.0,41.0,29.88,NNW,342,3.0,3.0,83,0.00,,,0.00,,2013-05-06 14:01:00,
2013-05-06 07:21:00,47.0,42.0,29.88,NNW,342,1.0,2.0,83,0.00,,,0.00,,2013-05-06 14:21:00,
2013-05-06 07:32:00,48.0,43.0,29.88,NNW,342,0.0,1.0,83,0.00,,,0.00,,2013-05-06 14:32:00,
2013-05-06 07:52:00,49.0,44.0,29.88,NNW,342,0.0,0.0,83,0.00,,,0.00,,2013-05-06 14:52:00,
2013-05-06 08:01:00,51.0,45.0,29.88,NNW,342,0.0,1.0,81,0.00,,,0.00,,2013-05-06 15:01:00,
2013-05-06 08:11:00,51.0,45.0,29.88,NNW,342,0.0,1.0,81,0.00,,,0.00,,2013-05-06 15:11:00,
2013-05-06 08:21:00,53.0,46.0,29.88,East,101,1.0,2.0,78,0.00,,,0.00,,2013-05-06 15:21:00,
2013-05-06 08:33:00,54.0,45.0,29.89,ESE,104,0.0,3.0,72,0.00,,,0.00,,2013-05-06 15:33:00,
2013-05-06 08:42:00,54.0,45.0,29.89,ESE,104,0.0,3.0,72,0.00,,,0.00,,2013-05-06 15:42:00,
2013-05-06 08:53:00,56.0,46.0,29.89,ESE,104,1.0,1.0,68,0.00,,,0.00,,2013-05-06 15:53:00,
2013-05-06 09:02:00,54.0,44.0,29.88,ESE,105,0.0,2.0,70,0.00,,,0.00,,2013-05-06 16:02:00,
2013-05-06 09:13:00,54.0,44.0,29.88,ESE,105,0.0,2.0,70,0.00,,,0.00,,2013-05-06 16:13:00,
2013-05-06 09:22:00,57.0,47.0,29.88,SSW,196,1.0,3.0,70,0.00,,,0.00,,2013-05-06 16:22:00,
2013-05-06 09:32:00,58.0,47.0,29.88,SSE,152,0.0,2.0,67,0.00,,,0.00,,2013-05-06 16:32:00,
2013-05-06 09:41:00,58.0,47.0,29.88,SSE,152,0.0,2.0,67,0.00,,,0.00,,2013-05-06 16:41:00,
2013-05-06 09:52:00,56.0,46.0,29.88,ESE,113,3.0,5.0,68,0.00,,,0.00,,2013-05-06 16:52:00,
2013-05-06 10:02:00,54.0,45.0,29.89,ESE,121,3.0,5.0,72,0.00,,,0.00,,2013-05-06 17:02:00,
2013-05-06 10:23:00,53.0,45.0,29.89,ESE,123,2.0,5.0,73,0.00,,,0.00,,2013-05-06 17:23:00,
2013-05-06 10:31:00,55.0,45.0,29.89,SE,132,2.0,3.0,70,0.00,,,0.00,,2013-05-06 17:31:00,
2013-05-06 10:52:00,57.0,47.0,29.89,SE,132,1.0,2.0,68,0.00,,,0.00,,2013-05-06 17:52:00,
2013-05-06 11:01:00,56.0,46.0,29.88,ESE,113,1.0,4.0,69,0.00,,,0.00,,2013-05-06 18:01:00,
2013-05-06 11:21:00,58.0,46.0,29.88,SE,124,3.0,4.0,65,0.00,,,0.00,,2013-05-06 18:21:00,
2013-05-06 11:31:00,61.0,47.0,29.88,ESE,105,3.0,4.0,59,0.00,,,0.00,,2013-05-06 18:31:00,
2013-05-06 11:42:00,61.0,47.0,29.88,ESE,105,3.0,4.0,59,0.00,,,0.00,,2013-05-06 18:42:00,
2013-05-06 11:52:00,64.0,45.0,29.88,SE,128,3.0,6.0,51,0.00,,,0.00,,2013-05-06 18:52:00,
2013-05-06 12:01:00,59.0,46.0,29.87,ESE,109,2.0,7.0,62,0.00,,,0.00,,2013-05-06 19:01:00,
2013-05-06 12:11:00,59.0,46.0,29.87,ESE,109,2.0,7.0,62,0.00,,,0.00,,2013-05-06 19:11:00,
2013-05-06 12:22:00,60.0,46.0,29.87,ESE,110,3.0,5.0,59,0.00,,,0.00,,2013-05-06 19:22:00,
2013-05-06 12:32:00,58.0,45.0,29.87,ESE,117,3.0,5.0,62,0.00,,,0.00,,2013-05-06 19:32:00,
2013-05-06 12:52:00,60.0,45.0,29.87,ESE,121,3.0,4.0,58,0.00,,,0.00,,2013-05-06 19:52:00,
2013-05-06 13:01:00,62.0,46.0,29.86,ESE,117,3.0,4.0,56,0.00,,,0.00,,2013-05-06 20:01:00,
2013-05-06 13:11:00,62.0,46.0,29.86,ESE,117,3.0,4.0,56,0.00,,,0.00,,2013-05-06 20:11:00,
2013-05-06 13:21:00,65.0,45.0,29.86,SE,132,3.0,4.0,49,0.00,,,0.00,,2013-05-06 20:21:00,
2013-05-06 13:32:00,65.0,44.0,29.85,ESE,120,3.0,4.0,46,0.00,,,0.00,,2013-05-06 20:32:00,
2013-05-06 13:41:00,65.0,44.0,29.85,ESE,120,3.0,4.0,46,0.00,,,0.00,,2013-05-06 20:41:00,
2013-05-06 13:52:00,64.0,46.0,29.85,SE,132,1.0,3.0,52,0.00,,,0.00,,2013-05-06 20:52:00,
2013-05-06 14:01:00,66.0,46.0,29.85,SE,136,2.0,3.0,48,0.00,,,0.00,,2013-05-06 21:01:00,
2013-05-06 14:11:00,66.0,46.0,29.85,SE,136,2.0,3.0,48,0.00,,,0.00,,2013-05-06 21:11:00,
2013-05-06 14:21:00,65.0,44.0,29.85,SE,139,1.0,3.0,47,0.00,,,0.00,,2013-05-06 21:21:00,
2013-05-06 14:32:00,68.0,43.0,29.85,SE,136,2.0,3.0,41,0.00,,,0.00,,2013-05-06 21:32:00,
2013-05-06 14:42:00,68.0,43.0,29.85,SE,136,2.0,3.0,41,0.00,,,0.00,,2013-05-06 21:42:00,
2013-05-06 14:53:00,68.0,43.0,29.85,SE,146,1.0,3.0,41,0.00,,,0.00,,2013-05-06 21:53:00,
2013-05-06 15:02:00,70.0,42.0,29.84,SE,146,1.0,2.0,36,0.00,,,0.00,,2013-05-06 22:02:00,
2013-05-06 15:12:00,70.0,42.0,29.84,SE,146,1.0,2.0,36,0.00,,,0.00,,2013-05-06 22:12:00,
2013-05-06 15:22:00,68.0,43.0,29.84,SE,146,0.0,2.0,41,0.00,,,0.00,,2013-05-06 22:22:00,
2013-05-06 15:33:00,67.0,46.0,29.84,SE,146,0.0,2.0,46,0.00,,,0.00,,2013-05-06 22:33:00,
2013-05-06 15:45:00,67.0,46.0,29.84,SE,146,0.0,2.0,46,0.00,,,0.00,,2013-05-06 22:45:00,
2013-05-06 15:52:00,62.0,44.0,29.84,SE,140,2.0,8.0,52,0.00,,,0.00,,2013-05-06 22:52:00,
2013-05-06 16:02:00,61.0,43.0,29.83,South,169,4.0,7.0,51,0.00,,,0.00,,2013-05-06 23:02:00,
2013-05-06 16:22:00,61.0,42.0,29.83,South,172,3.0,5.0,50,0.00,,,0.00,,2013-05-06 23:22:00,
2013-05-06 16:31:00,62.0,43.0,29.82,SSE,168,6.0,7.0,49,0.00,,,0.00,,2013-05-06 23:31:00,
2013-05-06 17:01:00,60.0,43.0,29.81,South,184,2.0,5.0,53,0.00,,,0.00,,2013-05-07 00:01:00,
2013-05-06 17:21:00,64.0,43.0,29.81,SE,136,2.0,5.0,47,0.00,,,0.00,,2013-05-07 00:21:00,
2013-05-06 17:31:00,63.0,42.0,29.81,West,278,3.0,7.0,46,0.00,,,0.00,,2013-05-07 00:31:00,
2013-05-06 17:41:00,63.0,42.0,29.81,West,278,3.0,7.0,46,0.00,,,0.00,,2013-05-07 00:41:00,
2013-05-06 17:52:00,64.0,43.0,29.80,SSE,148,2.0,4.0,47,0.00,,,0.00,,2013-05-07 00:52:00,
2013-05-06 18:01:00,61.0,43.0,29.80,South,184,4.0,9.0,52,0.00,,,0.00,,2013-05-07 01:01:00,
2013-05-06 18:21:00,59.0,43.0,29.80,South,173,1.0,5.0,56,0.00,,,0.00,,2013-05-07 01:21:00,
2013-05-06 18:31:00,57.0,43.0,29.79,West,277,2.0,3.0,60,0.00,,,0.00,,2013-05-07 01:31:00,
2013-05-06 18:52:00,60.0,42.0,29.79,SSE,156,1.0,7.0,52,0.00,,,0.00,,2013-05-07 01:52:00,
2013-05-06 19:01:00,60.0,43.0,29.78,SSE,151,1.0,2.0,54,0.00,,,0.00,,2013-05-07 02:01:00,
2013-05-06 19:11:00,60.0,43.0,29.78,SSE,151,1.0,2.0,54,0.00,,,0.00,,2013-05-07 02:11:00,
2013-05-06 19:21:00,56.0,42.0,29.78,WSW,254,2.0,4.0,60,0.00,,,0.00,,2013-05-07 02:21:00,
2013-05-06 19:31:00,54.0,42.0,29.78,West,271,3.0,4.0,64,0.00,,,0.00,,2013-05-07 02:31:00,
2013-05-06 19:52:00,55.0,44.0,29.78,WNW,290,2.0,3.0,66,0.00,,,0.00,,2013-05-07 02:52:00,
2013-05-06 20:01:00,57.0,45.0,29.78,WNW,290,0.0,2.0,64,0.00,,,0.00,,2013-05-07 03:01:00,
2013-05-06 20:11:00,57.0,45.0,29.78,WNW,290,0.0,2.0,64,0.00,,,0.00,,2013-05-07 03:11:00,
2013-05-06 20:21:00,57.0,45.0,29.77,WNW,290,2.0,3.0,65,0.00,,,0.00,,2013-05-07 03:21:00,
2013-05-06 20:32:00,57.0,45.0,29.78,WNW,290,0.0,2.0,64,0.00,,,0.00,,2013-05-07 03:32:00,
2013-05-06 20:42:00,57.0,45.0,29.78,WNW,290,0.0,2.0,64,0.00,,,0.00,,2013-05-07 03:42:00,
2013-05-06 20:53:00,57.0,45.0,29.78,NW,313,2.0,3.0,64,0.00,,,0.00,,2013-05-07 03:53:00,
2013-05-06 21:02:00,57.0,45.0,29.78,NW,313,1.0,2.0,65,0.00,,,0.00,,2013-05-07 04:02:00,
2013-05-06 21:12:00,57.0,45.0,29.78,NW,313,1.0,2.0,65,0.00,,,0.00,,2013-05-07 04:12:00,
2013-05-06 21:23:00,56.0,45.0,29.78,NW,313,1.0,3.0,67,0.00,,,0.00,,2013-05-07 04:23:00,
2013-05-06 21:32:00,55.0,45.0,29.79,NW,313,1.0,2.0,68,0.00,,,0.00,,2013-05-07 04:32:00,
2013-05-06 21:42:00,55.0,45.0,29.79,NW,313,1.0,2.0,68,0.00,,,0.00,,2013-05-07 04:42:00,
2013-05-06 21:53:00,55.0,45.0,29.79,NW,313,0.0,1.0,69,0.00,,,0.00,,2013-05-07 04:53:00,
2013-05-06 22:02:00,55.0,45.0,29.80,NW,313,0.0,2.0,70,0.00,,,0.00,,2013-05-07 05:02:00,
2013-05-06 22:12:00,55.0,45.0,29.80,NW,313,0.0,2.0,70,0.00,,,0.00,,2013-05-07 05:12:00,
2013-05-06 22:22:00,54.0,45.0,29.80,NW,313,0.0,3.0,72,0.00,,,0.00,,2013-05-07 05:22:00,
2013-05-06 22:32:00,54.0,46.0,29.80,NW,313,0.0,1.0,73,0.00,,,0.00,,2013-05-07 05:32:00,
2013-05-06 22:42:00,54.0,46.0,29.80,NW,313,0.0,1.0,73,0.00,,,0.00,,2013-05-07 05:42:00,
2013-05-06 22:52:00,53.0,45.0,29.80,NW,313,0.0,2.0,74,0.00,,,0.00,,2013-05-07 05:52:00,
2013-05-06 23:02:00,53.0,45.0,29.80,NW,313,1.0,2.0,75,0.00,,,0.00,,2013-05-07 06:02:00,
2013-05-06 23:11:00,53.0,45.0,29.80,NW,313,1.0,2.0,75,0.00,,,0.00,,2013-05-07 06:11:00,
2013-05-06 23:21:00,53.0,46.0,29.80,NNW,340,1.0,3.0,76,0.00,,,0.00,,2013-05-07 06:21:00,
2013-05-06 23:32:00,53.0,46.0,29.81,NNW,340,0.0,1.0,76,0.00,,,0.00,,2013-05-07 06:32:00,
2013-05-06 23:41:00,53.0,46.0,29.81,NNW,340,0.0,1.0,76,0.00,,,0.00,,2013-05-07 06:41:00,
2013-05-06 23:52:00,52.0,45.0,29.81,NNW,340,1.0,3.0,76,0.00,,,0.00,,2013-05-07 06:52:00,